SCP
1 1 2 2 2 2 2 1 1 1 1 1 1 1 0 0 0 0 0 0 0 0 0 1 1 1 1 0 0 0 0 1 1 1 0 0 0 0 0 0 0 0 0
1 1 2 2 2 2 2 1 1 1 1 1 1 1 1 1 1 1 1 0 0 0 0 0 1 1 1 0 0 0 0 1 1 0 0 0 0 0 0 0 0 0 0
1 2 2 2 2 2 2 2 1 1 1 1 1 1 1 1 1 1 1 1 0 0 0 0 0 1 1 1 0 0 0 0 1 0 0 0 0 0 0 0 0 0 0
1 1 2 2 2 2 2 2 1 1 1 1 1 1 1 1 1 1 1 1 0 0 0 0 0 1 1 1 1 1 0 0 0 0 0 0 0 0 0 0 0 0 0
1 2 2 2 2 3 3 2 2 1 1 1 1 1 1 1 1 1 1 1 0 0 0 0 0 1 1 1 1 1 1 0 0 0 0 0 0 0 0 0 0 1 1
2 2 2 2 2 3 3 3 2 2 1 1 1 1 1 1 1 1 1 1 1 0 0 0 0 0 1 1 1 1 1 1 0 0 0 0 0 0 0 0 1 1 1
2 2 2 2 2 3 3 3 3 2 2 1 1 1 1 1 1 1 1 1 1 1 0 0 0 0 1 1 1 1 1 1 0 0 0 0 0 0 0 0 0 1 1
2 2 2 2 2 2 3 3 3 2 2 2 1 1 1 1 1 1 1 1 1 1 1 0 0 1 1 1 1 1 1 1 0 0 1 1 0 0 0 0 0 1 1
2 2 2 2 2 2 2 2 3 2 2 2 1 1 1 1 1 1 1 1 1 1 1 1 1 1 1 1 1 1 1 1 1 1 1 0 0 0 0 0 0 0 0
2 2 2 2 2 2 2 2 2 2 2 1 1 1 1 1 1 1 1 1 1 1 1 1 1 1 1 1 1 1 1 1 1 1 0 0 0 0 0 0 0 0 0
3 2 2 2 2 2 2 1 1 2 2 1 1 1 1 1 1 1 1 1 1 1 1 1 1 1 0 0 0 0 0 0 0 0 0 0 0 0 0 0 0 0 0
3 3 2 2 2 2 2 2 2 2 2 1 1 1 1 1 1 1 1 1 1 1 1 1 1 0 0 0 0 0 0 0 0 0 0 0 0 0 0 0 0 0 0
3 3 3 2 2 2 3 3 2 2 2 2 2 1 1 1 1 1 1 1 1 1 1 1 1 0 0 0 0 0 0 0 0 0 0 0 0 1 1 1 0 0 0
3 3 3 2 2 2 2 3 3 3 3 3 2 2 2 2 2 2 1 1 1 1 1 1 1 1 0 0 0 0 0 0 0 0 0 0 0 0 1 1 0 0 0
3 2 2 2 2 2 2 2 2 3 3 3 3 2 2 2 2 2 1 1 1 1 1 1 1 1 0 0 0 0 0 0 0 0 0 0 0 0 0 0 0 0 0
1 1 1 1 2 2 2 2 2 2 2 3 3 3 2 2 2 2 1 1 1 1 1 1 1 1 1 0 0 0 0 0 0 0 0 0 0 0 0 0 0 0 0
0 0 0 1 1 1 1 1 2 2 2 2 3 3 2 2 2 2 1 1 1 1 1 1 1 1 1 0 0 0 0 0 0 0 0 0 0 0 0 0 0 0 0
0 0 0 0 0 0 1 1 1 2 2 2 3 3 2 2 2 2 1 1 1 1 1 1 1 1 1 1 0 0 0 0 0 0 0 0 0 0 0 0 0 0 0
0 0 0 0 0 0 1 1 2 2 2 2 2 2 2 2 2 2 1 1 1 1 1 1 1 1 1 1 1 0 0 0 0 0 0 0 0 0 0 0 0 0 0
0 0 0 0 0 0 1 2 3 3 2 2 2 2 2 1 1 1 1 1 1 1 1 1 1 0 0 1 1 0 0 0 0 0 0 0 0 0 0 0 0 0 0
0 0 0 0 0 0 1 2 3 3 3 2 2 2 1 1 1 1 1 1 1 1 1 1 0 0 0 0 0 0 0 0 0 0 0 0 0 0 0 0 0 0 0
0 0 0 0 0 0 1 2 3 4 3 3 2 2 1 1 1 1 1 1 1 1 0 0 0 0 0 0 0 0 0 0 0 0 0 0 0 0 0 0 0 0 0
0 0 0 0 0 0 0 2 3 4 4 3 2 1 1 1 1 0 0 0 0 0 0 0 0 0 0 0 0 0 0 0 0 0 0 0 0 0 0 0 0 0 0
0 0 0 0 0 0 0 1 3 4 4 3 2 1 1 1 1 0 0 0 0 0 0 0 0 0 0 0 0 0 0 0 0 0 0 0 0 0 0 0 0 0 0
0 0 0 0 0 0 0 1 2 3 3 3 3 2 1 1 1 1 0 0 0 0 0 0 0 0 0 0 0 0 0 0 0 0 0 0 0 0 0 0 0 0 0
0 0 0 0 0 0 0 1 2 3 3 3 3 2 1 1 1 1 0 0 0 0 0 0 0 0 0 0 0 0 0 0 0 0 0 0 0 0 0 0 0 0 0
Wind_Speed
4 6 6 6 8 9 8 8 8 8 8 9 9 9 9 8 9 9 9 9 9 10 10 11 11 12 12 12 12 12 12 12 12 12 11 12 12 11 11 10 8 9 11
6 7 6 7 9 9 8 8 8 8 8 8 8 8 8 8 8 8 8 8 8 9 10 11 11 11 11 11 11 11 11 11 11 10 9 10 10 11 10 10 9 8 10
6 7 8 7 8 9 9 8 8 8 8 8 8 8 8 8 8 8 8 8 8 9 9 10 10 10 11 11 11 11 11 11 10 8 6 7 8 10 10 10 10 10 10
6 7 7 6 7 9 9 9 8 8 8 8 8 8 7 8 8 8 8 8 8 8 9 10 10 10 10 10 10 10 10 10 8 5 5 6 6 9 9 10 10 10 10
6 7 6 6 6 8 9 9 8 8 8 7 7 7 7 7 7 7 7 7 8 8 8 9 10 10 10 9 9 9 10 9 6 4 6 6 6 8 9 9 9 9 9
6 6 6 5 6 7 8 9 8 7 7 7 7 7 7 7 7 7 7 7 7 7 8 9 9 9 9 9 9 9 8 7 4 5 5 5 6 8 9 9 9 9 9
5 5 6 5 5 6 7 8 8 7 7 7 6 6 6 7 7 7 7 7 7 7 8 8 8 9 8 8 8 8 7 5 4 5 5 6 7 9 9 9 9 9 9
5 5 5 5 4 5 6 6 6 7 6 6 6 6 6 6 6 7 6 6 7 7 7 8 8 8 8 8 8 7 6 3 4 5 5 5 7 7 8 7 7 8 8
4 4 4 4 4 4 5 5 5 5 6 6 6 6 6 6 6 6 6 6 6 7 7 7 7 7 7 7 7 7 6 3 3 3 3 4 5 6 7 6 6 6 7
3 3 3 3 4 4 5 5 4 4 5 5 6 6 5 6 6 5 5 5 5 6 7 7 8 8 7 7 7 6 5 2 3 3 3 4 4 5 6 6 6 6 6
2 2 2 2 2 3 4 4 5 4 5 5 5 6 5 4 5 4 5 5 5 6 7 7 7 8 7 7 6 5 3 2 3 2 2 4 3 4 4 5 5 5 5
2 1 1 2 2 2 2 3 3 3 4 4 4 5 4 3 3 3 5 5 5 6 7 7 7 7 4 4 5 3 2 2 2 2 3 4 3 3 4 4 4 4 4
2 2 1 1 2 2 2 2 2 2 2 3 4 4 3 3 3 3 3 3 4 4 4 5 5 3 2 2 2 2 1 1 1 1 3 4 3 2 2 2 2 3 3
2 2 1 2 2 2 2 2 2 2 2 2 3 4 3 2 3 3 2 2 2 2 2 2 2 3 3 2 2 2 2 1 1 1 3 4 3 3 2 1 2 3 2
2 2 2 2 2 2 2 2 2 2 2 2 3 3 4 3 3 3 2 2 2 2 2 2 2 3 3 2 2 2 2 1 1 1 1 3 3 2 1 1 1 2 2
3 3 2 2 2 2 2 2 2 2 2 2 3 3 4 3 3 3 2 2 2 2 2 2 3 2 2 2 2 2 1 1 1 1 0 1 2 2 1 0 0 1 1
3 3 3 3 3 3 3 2 2 2 2 2 2 3 3 3 3 3 3 2 2 2 3 3 3 2 2 2 2 2 1 1 2 2 1 1 0 0 1 1 1 1 1
3 3 2 2 3 3 3 2 2 2 2 2 2 2 3 3 3 3 3 3 3 2 2 3 3 2 2 2 2 2 2 2 2 2 1 1 1 1 1 1 2 2 1
3 3 3 2 3 3 3 2 2 2 2 2 2 2 2 3 3 3 3 2 3 3 3 3 3 3 3 3 2 2 2 2 2 2 2 1 1 2 1 0 1 2 2
3 3 3 2 2 3 3 2 2 2 2 2 2 2 3 2 3 3 3 3 3 3 3 3 3 3 2 2 2 2 2 2 2 2 2 2 2 2 2 2 2 1 2
2 2 2 2 2 2 2 3 3 2 2 2 2 2 3 3 3 3 2 3 3 3 3 4 3 3 2 2 2 2 2 3 3 3 3 3 3 3 3 2 2 2 1
2 2 2 3 2 2 2 3 3 2 2 2 2 2 2 3 3 3 3 3 3 3 3 4 3 2 1 2 2 2 2 3 3 3 3 3 3 2 3 3 2 2 2
2 2 2 2 3 3 2 2 2 1 1 1 2 2 3 3 3 3 3 3 3 3 3 3 4 4 2 3 3 2 2 3 1 3 3 3 3 3 2 2 2 2 2
3 3 3 2 2 2 2 3 4 3 3 3 2 2 3 3 3 3 4 4 4 3 3 3 3 3 3 3 3 3 2 2 2 2 2 3 3 3 3 3 3 3 3
3 3 3 2 2 2 2 3 4 4 4 3 3 3 3 3 3 3 3 4 4 3 4 4 4 4 3 3 3 2 3 2 3 3 3 2 3 3 4 4 3 3 3
3 2 2 2 2 2 3 3 4 5 4 4 3 3 3 3 3 3 3 3 3 3 4 4 4 5 4 4 3 3 3 3 3 4 4 3 3 3 3 3 3 3 3
Wind_Direction
165 158 150 153 143 135 129 127 124 122 121 121 120 118 113 111 109 105 103 101 101 100 99 96 93 90 87 84 83 83 82 81 83 84 83 82 81 81 78 73 75 78 78
155 156 151 153 143 137 132 127 124 125 124 126 123 122 119 116 113 109 107 105 106 106 102 99 96 93 91 86 85 86 84 82 82 81 84 87 83 80 78 72 66 76 79
144 148 154 145 141 137 133 129 126 123 122 125 124 124 123 122 119 117 113 108 107 106 103 100 96 95 93 90 87 86 84 81 79 82 95 95 90 82 78 76 76 78 79
139 146 153 136 138 139 137 133 129 128 125 123 121 120 125 125 125 123 118 112 110 107 104 102 101 99 95 94 91 88 85 82 77 85 91 84 87 85 83 79 77 76 77
143 147 142 130 135 137 138 135 134 132 129 126 124 121 122 129 128 125 119 113 110 108 108 108 105 103 99 95 92 90 88 83 78 89 85 84 85 86 84 81 78 75 75
144 146 136 124 132 134 137 140 138 134 132 129 125 125 120 122 124 121 119 113 108 107 111 111 109 106 102 100 96 94 92 88 102 88 84 82 84 87 85 85 82 78 76
138 140 139 121 126 135 136 142 141 137 135 133 128 124 122 119 120 121 117 111 109 109 114 115 113 109 105 103 99 98 95 87 87 88 83 83 83 87 88 88 86 83 79
134 140 142 126 120 126 131 137 141 141 138 135 128 122 117 120 119 118 115 111 114 110 114 117 117 114 109 105 102 100 96 96 100 95 94 92 89 95 95 93 92 87 82
119 129 141 157 156 139 131 129 132 137 137 133 125 117 115 115 118 110 108 115 116 115 113 116 118 115 111 106 104 100 95 78 106 97 98 92 94 102 100 98 100 94 90
112 122 136 163 174 172 166 135 128 131 130 128 121 112 112 115 113 110 114 112 117 117 114 113 116 114 108 102 101 100 100 126 98 97 91 87 89 103 102 104 107 102 96
99 114 142 161 178 179 179 158 152 139 129 135 136 123 137 153 148 140 124 110 114 116 114 117 116 114 111 106 99 101 127 115 96 81 79 76 90 104 106 105 104 105 102
153 153 161 184 186 183 174 174 174 168 161 170 168 163 171 164 153 141 120 112 112 115 118 121 121 125 133 131 121 136 131 108 106 85 69 69 84 97 103 104 107 111 108
187 181 211 206 195 186 174 170 170 176 171 176 176 180 177 166 155 155 141 135 134 136 142 139 145 141 133 130 140 142 124 123 109 92 67 56 60 84 100 113 135 132 122
205 203 213 208 196 200 187 174 170 178 178 178 183 184 181 179 179 170 160 160 162 158 157 157 149 143 141 143 145 145 144 145 130 104 67 45 43 60 73 118 135 125 120
223 221 215 213 202 199 197 186 177 181 189 189 187 190 191 187 185 183 172 174 174 171 171 170 164 162 157 154 156 159 164 160 166 151 103 60 34 37 58 105 137 134 114
244 238 225 214 210 199 192 198 191 186 188 192 191 191 195 195 189 186 183 180 182 184 178 178 175 172 160 157 165 173 189 189 201 206 208 121 59 18 8 12 119 155 152
252 251 239 218 215 210 203 204 202 192 190 196 189 188 190 194 194 189 186 188 189 187 185 177 169 171 156 166 180 190 208 222 226 224 230 241 191 25 332 317 304 236 193
259 246 244 227 216 212 209 201 207 196 189 193 191 192 197 196 193 189 188 192 192 186 189 184 175 177 177 190 198 210 219 221 231 237 237 242 258 250 247 352 329 294 269
259 244 229 228 225 217 209 199 189 189 186 192 193 193 197 195 195 194 189 188 189 190 193 191 192 193 197 203 211 222 234 238 242 235 230 236 253 255 245 134 337 322 306
257 247 229 216 232 220 201 194 185 183 193 194 201 201 190 195 198 199 191 189 186 191 196 198 197 201 204 204 210 230 244 242 241 247 241 232 241 244 239 244 236 242 297
251 243 235 219 215 208 198 201 203 203 206 203 204 208 196 194 196 196 190 188 194 201 200 199 201 194 192 192 204 235 237 228 231 232 230 234 229 227 228 233 240 248 240
244 245 241 234 224 212 215 212 217 214 214 215 206 210 208 201 197 200 196 195 201 205 199 192 186 199 183 191 210 228 241 223 221 226 225 232 237 229 226 230 226 249 261
241 246 245 240 230 226 227 207 196 186 192 216 226 217 220 213 202 196 202 199 200 201 200 199 200 196 200 205 223 225 224 240 248 210 222 226 232 234 235 230 233 244 256
258 250 240 236 229 225 218 201 193 197 205 222 226 230 225 221 214 205 201 204 203 204 207 203 207 215 207 207 216 244 260 267 246 241 221 227 240 243 239 241 239 238 240
274 258 248 237 227 219 213 209 208 215 220 220 217 224 225 219 215 212 208 207 207 209 212 209 210 215 218 221 214 215 231 238 237 243 250 237 237 240 244 243 243 241 238
302 282 264 248 237 224 212 210 215 221 223 219 218 222 226 223 218 215 213 216 214 213 217 216 213 216 219 224 227 221 217 218 224 233 245 251 251 237 240 238 238 242 245